Flag for Germany Weather past 2 weeks in Freiberg, Saxony, Germany

Now
43 °F

Clear.


Feels Like: 40 °F
Forecast: 47 / 64 °F
Wind: 5 mph from Southwest

Location: Dresden-Klotzsche

Current Time: May 28, 2015 at 6:31:01 AM

Latest Report: May 28, 2015 at 5:20 AM


Visibility: 10 mi

Pressure: 30.07 "Hg

Humidity: 87%

Dew point: 39 °F

Location of FreibergLocation

Historic Weather in Freiberg — Graph

°F

Freiberg temperature yesterday

Maximum temperature yesterday: 54 °F (at 2:20 PM)
Minimum temperature yesterday: 45 °F (at 5:20 AM)
Average temperature yesterday: 50 °F

Past Weeks' High & Low Weather Summary

 TemperatureHumidityPressure
High70 °F (May 18, 3:20 PM)100% (May 15, 4:20 AM)30.33 "Hg (May 15, 4:20 AM)
Low37 °F (May 15, 4:20 AM)32% (May 22, 2:20 PM)29.65 "Hg (May 19, 1:20 AM)
Average55 °F64%30.03 "Hg
* Reported May 13 4:20 AM — May 28 4:50 AM, Freiberg, Weather by CustomWeather, © 2015

Note: Actual official high and low records may vary slightly from our data, if they occured in-between our weather recording intervals... More about our weather records

Advertising

Freiberg weather history for previous 24 hours

 ConditionsComfort  
Time TempWeatherWind HumidityBarometerVisibility
4:50 AM
Thu, May 28
43 °FClear.6 mph87%30.09 "Hg10 mi
4:20 AM45 °FClear.6 mph81%30.09 "Hg10 mi
3:50 AM46 °FClear.5 mph82%30.09 "Hg10 mi
3:20 AM46 °FClear.5 mph82%30.09 "Hg10 mi
2:50 AM46 °FClear.2 mph82%30.09 "Hg10 mi
2:20 AM46 °FClear.3 mph82%30.09 "Hg10 mi
1:50 AM46 °FClear.5 mph76%30.09 "Hg10 mi
1:20 AM46 °FClear.5 mph82%30.09 "Hg10 mi
12:50 AM48 °FClear.5 mph76%30.12 "Hg10 mi
12:20 AM50 °FClear.3 mph71%30.12 "Hg10 mi
11:50 PM
Wed, May 27
50 °FClear.3 mph71%30.12 "Hg10 mi
11:20 PM50 °FClear.3 mph71%30.12 "Hg10 mi
10:50 PM50 °FPassing clouds.5 mph76%30.12 "HgN/A
10:20 PM50 °FClear.5 mph76%30.12 "Hg10 mi
9:50 PM50 °FPassing clouds.3 mph76%30.12 "HgN/A
9:20 PM50 °FPassing clouds.3 mph76%30.12 "HgN/A
8:50 PM50 °FPassing clouds.3 mph76%30.12 "HgN/A
8:20 PM52 °FPartly sunny.3 mph67%30.12 "HgN/A
7:50 PM52 °FPartly sunny.6 mph67%30.12 "HgN/A
7:20 PM52 °FBroken clouds.7 mph62%30.12 "HgN/A
6:50 PM52 °FPartly sunny.8 mph67%30.12 "HgN/A
6:20 PM54 °FPartly sunny.9 mph63%30.12 "HgN/A
5:50 PM52 °FPartly sunny.9 mph67%30.12 "HgN/A
5:20 PM52 °FPartly sunny.9 mph62%30.12 "HgN/A
4:50 PM54 °FPartly sunny.8 mph63%30.12 "HgN/A
4:20 PM52 °FPartly sunny.9 mph67%30.15 "HgN/A
3:50 PM52 °FBroken clouds.9 mph67%30.15 "HgN/A
3:20 PM52 °FPartly sunny.10 mph62%30.15 "HgN/A
2:50 PM52 °FPartly sunny.9 mph67%30.15 "HgN/A
2:20 PM54 °FPartly sunny.10 mph67%30.15 "HgN/A
1:50 PM52 °FPartly sunny.7 mph72%30.15 "HgN/A
1:20 PM50 °FLight rain. Partly sunny.12 mph67%30.15 "HgN/A
12:50 PM50 °FBroken clouds.10 mph67%30.15 "HgN/A
12:20 PM50 °FLight rain. Partly sunny.13 mph67%30.15 "HgN/A
11:50 AM52 °FLight rain. Partly sunny.13 mph62%30.15 "HgN/A
11:20 AM50 °FPartly sunny.13 mph67%30.15 "HgN/A
10:50 AM50 °FBroken clouds.12 mph71%30.15 "HgN/A
10:20 AM48 °FBroken clouds.9 mph76%30.15 "HgN/A
9:50 AM48 °FBroken clouds.10 mph76%30.15 "HgN/A
9:20 AM48 °FPartly sunny.9 mph82%30.15 "HgN/A
8:50 AM46 °FPartly sunny.10 mph82%30.15 "HgN/A
8:20 AM46 °FPartly sunny.10 mph82%30.15 "HgN/A
7:50 AM46 °FPartly sunny.8 mph82%30.15 "HgN/A
7:20 AM46 °FPartly sunny.9 mph82%30.15 "HgN/A
6:50 AM45 °FPartly sunny.9 mph87%30.15 "HgN/A
6:20 AM45 °FBroken clouds.8 mph87%30.15 "HgN/A
Weather by CustomWeather, © 2015

See weather overviewHow to use our weather pages